Location: Jackson Park
(37.2862°N, 79.9123°W)
Time: 22:26:11
(UTC+00:00)

Transit 4A - Pass Details

Date: 14 May 2026
Orbit: 861 x 980 km, 66.8° (Epoch: 5 June)

Event Time Altitude Azimuth Distance (km) Brightness Sun altitude
Rises 11:55:53 0° 168° (SSE) 3,509 11.0 18.9°
Reaches altitude 10° 11:58:52 10° 154° (SSE) 2,593 10.5 19.5°
Maximum altitude 12:03:24 22° 105° (ESE) 1,889 11.1 20.4°
Drops below altitude 10° 12:08:03 10° 56° (NE) 2,669 11.6 21.3°
Sets 12:11:10 0° 42° (NE) 3,638 11.8 22.0°
